owner,sensor,date,latitude,longitude,vertical_datum,direction_of_sea_water_velocity,sea_water_speed,upward_sea_water_velocity,qcFlag 
TABS,ioos:station:wmo:42043:1,1995-04-03T00:00:00Z,28.9818,-94.9186,2.0,252.7595503,54.28913888,-99999.0,'11111222,11111222,99999999' 
TABS,ioos:station:wmo:42043:1,1995-04-03T00:30:00Z,28.9818,-94.9186,2.0,252.4671327,41.56064605,-99999.0,'11111222,11111222,99999999' 
TABS,ioos:station:wmo:42043:1,1995-04-03T01:00:00Z,28.9818,-94.9186,2.0,250.3683,49.67756234,-99999.0,'11111222,11111222,99999999' 
TABS,ioos:station:wmo:42043:1,1995-04-03T01:30:00Z,28.9818,-94.9186,2.0,249.602259,35.92240666,-99999.0,'11111222,11111222,99999999' 
TABS,ioos:station:wmo:42043:1,1995-04-03T02:00:00Z,28.9818,-94.9186,2.0,247.3500949,37.13385113,-99999.0,'11111222,11111222,99999999' 
TABS,ioos:station:wmo:42043:1,1995-04-03T02:30:00Z,28.9818,-94.9186,2.0,248.802788,46.98910725,-99999.0,'11111222,11111222,99999999' 
TABS,ioos:station:wmo:42043:1,1995-04-03T03:00:00Z,28.9818,-94.9186,2.0,243.8204135,39.84763481,-99999.0,'11111222,11111222,99999999' 
TABS,ioos:station:wmo:42043:1,1995-04-03T03:30:00Z,28.9818,-94.9186,2.0,246.5837345,31.50457903,-99999.0,'11111222,11111222,99999999' 
TABS,ioos:station:wmo:42043:1,1995-04-03T04:00:00Z,28.9818,-94.9186,2.0,243.9193688,31.18532026,-99999.0,'11111222,11111222,99999999' 
TABS,ioos:station:wmo:42043:1,1995-04-03T04:30:00Z,28.9818,-94.9186,2.0,235.5098233,30.00388308,-99999.0,'11111222,11111222,99999999' 
TABS,ioos:station:wmo:42043:1,1995-04-03T05:00:00Z,28.9818,-94.9186,2.0,239.3194573,31.53383104,-99999.0,'11111222,11111222,99999999' 
TABS,ioos:station:wmo:42043:1,1995-04-03T05:30:00Z,28.9818,-94.9186,2.0,238.7305448,29.28379928,-99999.0,'11111222,11111222,99999999' 
TABS,ioos:station:wmo:42043:1,1995-04-03T06:00:00Z,28.9818,-94.9186,2.0,239.1463443,28.46881803,-99999.0,'11111222,11111222,99999999' 
TABS,ioos:station:wmo:42043:1,1995-04-03T06:30:00Z,28.9818,-94.9186,2.0,235.9836109,28.76167067,-99999.0,'11111222,11111222,99999999' 
TABS,ioos:station:wmo:42043:1,1995-04-03T07:00:00Z,28.9818,-94.9186,2.0,235.9836109,28.76167067,-99999.0,'11111222,11111222,99999999' 
TABS,ioos:station:wmo:42043:1,1995-04-03T07:30:00Z,28.9818,-94.9186,2.0,233.4869328,28.5545548,-99999.0,'11111222,11111222,99999999' 
TABS,ioos:station:wmo:42043:1,1995-04-03T08:00:00Z,28.9818,-94.9186,2.0,233.6785883,30.69340809,-99999.0,'11111222,11111222,99999999' 
TABS,ioos:station:wmo:42043:1,1995-04-03T08:30:00Z,28.9818,-94.9186,2.0,229.8350156,30.03163998,-99999.0,'11111222,11111222,99999999' 
TABS,ioos:station:wmo:42043:1,1995-04-03T09:00:00Z,28.9818,-94.9186,2.0,229.0275591,29.99885664,-99999.0,'11111222,11111222,99999999' 
TABS,ioos:station:wmo:42043:1,1995-04-03T09:30:00Z,28.9818,-94.9186,2.0,225.4087372,29.71338419,-99999.0,'11111222,11111222,99999999' 
TABS,ioos:station:wmo:42043:1,1995-04-03T10:00:00Z,28.9818,-94.9186,2.0,226.0879047,33.50876303,-99999.0,'11111222,11111222,99999999' 
TABS,ioos:station:wmo:42043:1,1995-04-03T10:30:00Z,28.9818,-94.9186,2.0,229.2929722,36.55392865,-99999.0,'11111222,11111222,99999999' 
TABS,ioos:station:wmo:42043:1,1995-04-03T11:00:00Z,28.9818,-94.9186,2.0,226.3566113,35.83207781,-99999.0,'11111222,11111222,99999999' 
TABS,ioos:station:wmo:42043:1,1995-04-03T11:30:00Z,28.9818,-94.9186,2.0,221.9892643,36.08395765,-99999.0,'11111222,11111222,99999999' 
TABS,ioos:station:wmo:42043:1,1995-04-03T12:00:00Z,28.9818,-94.9186,2.0,224.3129935,35.40030791,-99999.0,'11111222,11111222,99999999' 
TABS,ioos:station:wmo:42043:1,1995-04-03T12:30:00Z,28.9818,-94.9186,2.0,224.9996843,37.92920774,-99999.0,'11111222,11111222,99999999' 
TABS,ioos:station:wmo:42043:1,1995-04-03T13:00:00Z,28.9818,-94.9186,2.0,220.4625642,39.95653764,-99999.0,'11111222,11111222,99999999' 
TABS,ioos:station:wmo:42043:1,1995-04-03T13:30:00Z,28.9818,-94.9186,2.0,221.9869039,40.09179966,-99999.0,'11111222,11111222,99999999' 
TABS,ioos:station:wmo:42043:1,1995-04-03T14:00:00Z,28.9818,-94.9186,2.0,223.4515302,38.99703194,-99999.0,'11111222,11111222,99999999' 
TABS,ioos:station:wmo:42043:1,1995-04-03T14:30:00Z,28.9818,-94.9186,2.0,224.9996843,37.92920774,-99999.0,'11111222,11111222,99999999' 
TABS,ioos:station:wmo:42043:1,1995-04-03T15:00:00Z,28.9818,-94.9186,2.0,224.9996843,37.92920774,-99999.0,'11111222,11111222,99999999' 
TABS,ioos:station:wmo:42043:1,1995-04-03T15:30:00Z,28.9818,-94.9186,2.0,228.994727,36.33458408,-99999.0,'11111222,11111222,99999999' 
TABS,ioos:station:wmo:42043:1,1995-04-03T16:00:00Z,28.9818,-94.9186,2.0,230.5744184,34.72052563,-99999.0,'11111222,11111222,99999999' 
TABS,ioos:station:wmo:42043:1,1995-04-03T16:30:00Z,28.9818,-94.9186,2.0,231.4137094,33.92721621,-99999.0,'11111222,11111222,99999999' 
TABS,ioos:station:wmo:42043:1,1995-04-03T17:00:00Z,28.9818,-94.9186,2.0,233.9337932,33.92133989,-99999.0,'11111222,11111222,99999999' 
TABS,ioos:station:wmo:42043:1,1995-04-03T17:30:00Z,28.9818,-94.9186,2.0,236.6031105,32.48366974,-99999.0,'11111222,11111222,99999999' 
TABS,ioos:station:wmo:42043:1,1995-04-03T18:00:00Z,28.9818,-94.9186,2.0,235.3795649,30.41544509,-99999.0,'11111222,11111222,99999999' 
TABS,ioos:station:wmo:42043:1,1995-04-03T18:30:00Z,28.9818,-94.9186,2.0,233.5606923,31.11287997,-99999.0,'11111222,11111222,99999999' 
TABS,ioos:station:wmo:42043:1,1995-04-03T19:00:00Z,28.9818,-94.9186,2.0,236.4594568,30.74991057,-99999.0,'11111222,11111222,99999999' 
TABS,ioos:station:wmo:42043:1,1995-04-03T19:30:00Z,28.9818,-94.9186,2.0,238.2640592,33.99238885,-99999.0,'11111222,11111222,99999999' 
TABS,ioos:station:wmo:42043:1,1995-04-03T20:00:00Z,28.9818,-94.9186,2.0,236.5842512,33.55697394,-99999.0,'11111222,11111222,99999999' 
TABS,ioos:station:wmo:42043:1,1995-04-03T20:30:00Z,28.9818,-94.9186,2.0,234.674465,37.61566961,-99999.0,'11111222,11111222,99999999' 
TABS,ioos:station:wmo:42043:1,1995-04-03T21:00:00Z,28.9818,-94.9186,2.0,232.5336726,40.17817442,-99999.0,'11111222,11111222,99999999' 
TABS,ioos:station:wmo:42043:1,1995-04-03T21:30:00Z,28.9818,-94.9186,2.0,238.3330449,37.46840002,-99999.0,'11111222,11111222,99999999' 
TABS,ioos:station:wmo:42043:1,1995-04-03T22:00:00Z,28.9818,-94.9186,2.0,239.0333246,38.22874965,-99999.0,'11111222,11111222,99999999' 
TABS,ioos:station:wmo:42043:1,1995-04-03T22:30:00Z,28.9818,-94.9186,2.0,238.7251384,37.31178098,-99999.0,'11111222,11111222,99999999' 
TABS,ioos:station:wmo:42043:1,1995-04-03T23:00:00Z,28.9818,-94.9186,2.0,245.0731879,32.53020289,-99999.0,'11111222,11111222,99999999' 
TABS,ioos:station:wmo:42043:1,1995-04-03T23:30:00Z,28.9818,-94.9186,2.0,244.3213795,34.38589973,-99999.0,'11111222,11111222,99999999' 
TABS,ioos:station:wmo:42043:1,1995-04-04T00:00:00Z,28.9818,-94.9186,2.0,245.0408404,38.13099789,-99999.0,'11111222,11111222,99999999' 
TABS,ioos:station:wmo:42043:1,1995-04-04T00:30:00Z,28.9818,-94.9186,2.0,242.1670383,36.38973069,-99999.0,'11111222,11111222,99999999' 
TABS,ioos:station:wmo:42043:1,1995-04-04T01:00:00Z,28.9818,-94.9186,2.0,240.7751414,40.28814342,-99999.0,'11111222,11111222,99999999' 
TABS,ioos:station:wmo:42043:1,1995-04-04T01:30:00Z,28.9818,-94.9186,2.0,241.3880731,41.07593578,-99999.0,'11111222,11111222,99999999' 
TABS,ioos:station:wmo:42043:1,1995-04-04T02:00:00Z,28.9818,-94.9186,2.0,244.4711615,44.25008249,-99999.0,'11111222,11111222,99999999' 
TABS,ioos:station:wmo:42043:1,1995-04-04T02:30:00Z,28.9818,-94.9186,2.0,246.5199805,47.11068881,-99999.0,'11111222,11111222,99999999' 
TABS,ioos:station:wmo:42043:1,1995-04-04T03:00:00Z,28.9818,-94.9186,2.0,242.2265884,44.12295548,-99999.0,'11111222,11111222,99999999' 
TABS,ioos:station:wmo:42043:1,1995-04-04T03:30:00Z,28.9818,-94.9186,2.0,238.1689065,40.68926763,-99999.0,'11111222,11111222,99999999' 
TABS,ioos:station:wmo:42043:1,1995-04-04T04:00:00Z,28.9818,-94.9186,2.0,246.7940636,43.11840674,-99999.0,'11111222,11111222,99999999' 
TABS,ioos:station:wmo:42043:1,1995-04-04T04:30:00Z,28.9818,-94.9186,2.0,240.4041575,40.43546092,-99999.0,'11111222,11111222,99999999' 
TABS,ioos:station:wmo:42043:1,1995-04-04T05:00:00Z,28.9818,-94.9186,2.0,244.6880713,42.52230003,-99999.0,'11111222,11111222,99999999' 
TABS,ioos:station:wmo:42043:1,1995-04-04T05:30:00Z,28.9818,-94.9186,2.0,239.8735877,38.59302139,-99999.0,'11111222,11111222,99999999' 
TABS,ioos:station:wmo:42043:1,1995-04-04T06:00:00Z,28.9818,-94.9186,2.0,246.2921938,53.37423067,-99999.0,'11111222,11111222,99999999' 
TABS,ioos:station:wmo:42043:1,1995-04-04T06:30:00Z,28.9818,-94.9186,2.0,249.5645262,64.87254119,-99999.0,'11111222,11111222,99999999' 
TABS,ioos:station:wmo:42043:1,1995-04-04T07:00:00Z,28.9818,-94.9186,2.0,249.6566371,65.15374586,-99999.0,'11111222,11111222,99999999' 
TABS,ioos:station:wmo:42043:1,1995-04-04T07:30:00Z,28.9818,-94.9186,2.0,244.6866273,55.05619402,-99999.0,'11111222,11111222,99999999' 
TABS,ioos:station:wmo:42043:1,1995-04-04T08:00:00Z,28.9818,-94.9186,2.0,241.1441901,50.02055278,-99999.0,'11111222,11111222,99999999' 
TABS,ioos:station:wmo:42043:1,1995-04-04T08:30:00Z,28.9818,-94.9186,2.0,239.6862323,44.87549554,-99999.0,'11111222,11111222,99999999' 
TABS,ioos:station:wmo:42043:1,1995-04-04T09:00:00Z,28.9818,-94.9186,2.0,241.3880731,41.07593578,-99999.0,'11111222,11111222,99999999' 
TABS,ioos:station:wmo:42043:1,1995-04-04T09:30:00Z,28.9818,-94.9186,2.0,247.3500949,37.13385113,-99999.0,'11111222,11111222,99999999' 
TABS,ioos:station:wmo:42043:1,1995-04-04T10:00:00Z,28.9818,-94.9186,2.0,240.1031555,41.24913575,-99999.0,'11111222,11111222,99999999' 
TABS,ioos:station:wmo:42043:1,1995-04-04T10:30:00Z,28.9818,-94.9186,2.0,247.1285695,47.54814928,-99999.0,'11111222,11111222,99999999' 
TABS,ioos:station:wmo:42043:1,1995-04-04T11:00:00Z,28.9818,-94.9186,2.0,242.5068064,49.71430881,-99999.0,'11111222,11111222,99999999' 
TABS,ioos:station:wmo:42043:1,1995-04-04T11:30:00Z,28.9818,-94.9186,2.0,240.2961959,46.31582235,-99999.0,'11111222,11111222,99999999' 
TABS,ioos:station:wmo:42043:1,1995-04-04T12:00:00Z,28.9818,-94.9186,2.0,237.9520145,48.86697556,-99999.0,'11111222,11111222,99999999' 
TABS,ioos:station:wmo:42043:1,1995-04-04T12:30:00Z,28.9818,-94.9186,2.0,223.642049,44.46828645,-99999.0,'11111222,11111222,99999999' 
TABS,ioos:station:wmo:42043:1,1995-04-04T13:00:00Z,28.9818,-94.9186,2.0,217.2200017,38.91672777,-99999.0,'11111222,11111222,99999999' 
TABS,ioos:station:wmo:42043:1,1995-04-04T13:30:00Z,28.9818,-94.9186,2.0,225.3183442,38.14192968,-99999.0,'11111222,11111222,99999999' 
TABS,ioos:station:wmo:42043:1,1995-04-04T14:00:00Z,28.9818,-94.9186,2.0,234.8398619,48.11943163,-99999.0,'11111222,11111222,99999999' 
TABS,ioos:station:wmo:42043:1,1995-04-04T14:30:00Z,28.9818,-94.9186,2.0,230.6537186,42.77593716,-99999.0,'11111222,11111222,99999999' 
TABS,ioos:station:wmo:42043:1,1995-04-04T15:00:00Z,28.9818,-94.9186,2.0,229.716559,41.01675877,-99999.0,'11111222,11111222,99999999' 
TABS,ioos:station:wmo:42043:1,1995-04-04T15:30:00Z,28.9818,-94.9186,2.0,232.0028787,36.30502169,-99999.0,'11111222,11111222,99999999' 
TABS,ioos:station:wmo:42043:1,1995-04-04T16:00:00Z,28.9818,-94.9186,2.0,233.7953909,50.95943877,-99999.0,'11111222,11111222,99999999' 
TABS,ioos:station:wmo:42043:1,1995-04-04T16:30:00Z,28.9818,-94.9186,2.0,229.6736187,46.51259614,-99999.0,'11111222,11111222,99999999' 
TABS,ioos:station:wmo:42043:1,1995-04-04T17:00:00Z,28.9818,-94.9186,2.0,228.0338828,51.69834137,-99999.0,'11111222,11111222,99999999' 
TABS,ioos:station:wmo:42043:1,1995-04-04T17:30:00Z,28.9818,-94.9186,2.0,223.1050993,44.48719366,-99999.0,'11111222,11111222,99999999' 
TABS,ioos:station:wmo:42043:1,1995-04-04T18:00:00Z,28.9818,-94.9186,2.0,224.2038384,45.30870225,-99999.0,'11111222,11111222,99999999' 
TABS,ioos:station:wmo:42043:1,1995-04-04T18:30:00Z,28.9818,-94.9186,2.0,221.9382497,47.2668351,-99999.0,'11111222,11111222,99999999' 
TABS,ioos:station:wmo:42043:1,1995-04-04T19:00:00Z,28.9818,-94.9186,2.0,234.9512227,52.41448369,-99999.0,'11111222,11111222,99999999' 
TABS,ioos:station:wmo:42043:1,1995-04-04T19:30:00Z,28.9818,-94.9186,2.0,224.4555825,44.67702094,-99999.0,'11111222,11111222,99999999' 
TABS,ioos:station:wmo:42043:1,1995-04-04T20:00:00Z,28.9818,-94.9186,2.0,220.6896478,42.05744286,-99999.0,'11111222,11111222,99999999' 
TABS,ioos:station:wmo:42043:1,1995-04-04T20:30:00Z,28.9818,-94.9186,2.0,220.7240355,62.12251846,-99999.0,'11111222,11111222,99999999' 
TABS,ioos:station:wmo:42043:1,1995-04-04T21:00:00Z,28.9818,-94.9186,2.0,221.8682668,34.82043222,-99999.0,'11111222,11111222,99999999' 
TABS,ioos:station:wmo:42043:1,1995-04-04T21:30:00Z,28.9818,-94.9186,2.0,221.4009246,6.759127163,-99999.0,'11133222,11111222,99999999' 
TABS,ioos:station:wmo:42043:1,1995-04-04T22:00:00Z,28.9818,-94.9186,2.0,216.8915786,10.42800077,-99999.0,'11111222,11111222,99999999' 
TABS,ioos:station:wmo:42043:1,1995-04-04T22:30:00Z,28.9818,-94.9186,2.0,221.7109556,18.36552477,-99999.0,'11111222,11111222,99999999' 
TABS,ioos:station:wmo:42043:1,1995-04-04T23:00:00Z,28.9818,-94.9186,2.0,224.6458664,34.35190242,-99999.0,'11111222,11111222,99999999' 
TABS,ioos:station:wmo:42043:1,1995-04-04T23:30:00Z,28.9818,-94.9186,2.0,228.9267285,27.67041742,-99999.0,'11111222,11111222,99999999' 
TABS,ioos:station:wmo:42043:1,1995-04-05T00:00:00Z,28.9818,-94.9186,2.0,237.4144093,21.57630181,-99999.0,'11111222,11111222,99999999' 
TABS,ioos:station:wmo:42043:1,1995-04-05T00:30:00Z,28.9818,-94.9186,2.0,244.2088084,19.85809659,-99999.0,'11111222,11111222,99999999' 
TABS,ioos:station:wmo:42043:1,1995-04-05T01:00:00Z,28.9818,-94.9186,2.0,246.6522106,30.83479366,-99999.0,'11111222,11111222,99999999' 
TABS,ioos:station:wmo:42043:1,1995-04-05T01:30:00Z,28.9818,-94.9186,2.0,243.7092385,28.9216355,-99999.0,'11111222,11111222,99999999' 
TABS,ioos:station:wmo:42043:1,1995-04-05T02:00:00Z,28.9818,-94.9186,2.0,241.298513,32.27547211,-99999.0,'11111222,11111222,99999999' 
TABS,ioos:station:wmo:42043:1,1995-04-05T02:30:00Z,28.9818,-94.9186,2.0,236.9757888,35.54204412,-99999.0,'11111222,11111222,99999999' 
TABS,ioos:station:wmo:42043:1,1995-04-05T03:00:00Z,28.9818,-94.9186,2.0,227.65801,36.28534139,-99999.0,'11111222,11111222,99999999' 
TABS,ioos:station:wmo:42043:1,1995-04-05T03:30:00Z,28.9818,-94.9186,2.0,221.8452643,46.00335857,-99999.0,'11111222,11111222,99999999' 
TABS,ioos:station:wmo:42043:1,1995-04-05T04:00:00Z,28.9818,-94.9186,2.0,226.9002965,37.95008564,-99999.0,'11111222,11111222,99999999' 
TABS,ioos:station:wmo:42043:1,1995-04-05T04:30:00Z,28.9818,-94.9186,2.0,215.5341367,41.01914187,-99999.0,'11111222,11111222,99999999' 
TABS,ioos:station:wmo:42043:1,1995-04-05T05:00:00Z,28.9818,-94.9186,2.0,220.5660791,46.28429107,-99999.0,'11111222,11111222,99999999' 
TABS,ioos:station:wmo:42043:1,1995-04-05T05:30:00Z,28.9818,-94.9186,2.0,225.2985115,40.67333525,-99999.0,'11111222,11111222,99999999' 
TABS,ioos:station:wmo:42043:1,1995-04-05T06:00:00Z,28.9818,-94.9186,2.0,223.987439,47.63107494,-99999.0,'11111222,11111222,99999999' 
TABS,ioos:station:wmo:42043:1,1995-04-05T06:30:00Z,28.9818,-94.9186,2.0,220.8739319,40.98405178,-99999.0,'11111222,11111222,99999999' 
TABS,ioos:station:wmo:42043:1,1995-04-05T07:00:00Z,28.9818,-94.9186,2.0,219.8087699,41.89110645,-99999.0,'11111222,11111222,99999999' 
TABS,ioos:station:wmo:42043:1,1995-04-05T07:30:00Z,28.9818,-94.9186,2.0,224.9996843,39.18785781,-99999.0,'11111222,11111222,99999999' 
TABS,ioos:station:wmo:42043:1,1995-04-05T08:00:00Z,28.9818,-94.9186,2.0,224.6810733,36.87618879,-99999.0,'11111222,11111222,99999999' 
TABS,ioos:station:wmo:42043:1,1995-04-05T08:30:00Z,28.9818,-94.9186,2.0,222.6179108,40.49563433,-99999.0,'11111222,11111222,99999999' 
TABS,ioos:station:wmo:42043:1,1995-04-05T09:00:00Z,28.9818,-94.9186,2.0,229.0418183,41.83042553,-99999.0,'11111222,11111222,99999999' 
TABS,ioos:station:wmo:42043:1,1995-04-05T09:30:00Z,28.9818,-94.9186,2.0,226.103534,65.33464931,-99999.0,'11111222,11111222,99999999' 
TABS,ioos:station:wmo:42043:1,1995-04-05T10:00:00Z,28.9818,-94.9186,2.0,230.1949766,83.78989498,-99999.0,'11111222,11111222,99999999' 
TABS,ioos:station:wmo:42043:1,1995-04-05T10:30:00Z,28.9818,-94.9186,2.0,233.5613026,86.30244782,-99999.0,'11111222,11111222,99999999' 
TABS,ioos:station:wmo:42043:1,1995-04-05T11:00:00Z,28.9818,-94.9186,2.0,234.8488026,87.47136674,-99999.0,'11111222,11111222,99999999' 
TABS,ioos:station:wmo:42043:1,1995-04-05T11:30:00Z,28.9818,-94.9186,2.0,234.216352,97.34550478,-99999.0,'11111222,11111222,99999999' 
TABS,ioos:station:wmo:42043:1,1995-04-05T12:00:00Z,28.9818,-94.9186,2.0,235.6436339,99.26753195,-99999.0,'11111222,11111222,99999999' 
TABS,ioos:station:wmo:42043:1,1995-04-05T12:30:00Z,28.9818,-94.9186,2.0,238.450159,95.11980078,-99999.0,'11111222,11111222,99999999' 
TABS,ioos:station:wmo:42043:1,1995-04-05T13:00:00Z,28.9818,-94.9186,2.0,242.5302231,101.436207,-99999.0,'11111222,11111222,99999999' 
TABS,ioos:station:wmo:42043:1,1995-04-05T13:30:00Z,28.9818,-94.9186,2.0,243.2587472,87.43066968,-99999.0,'11111222,11111222,99999999' 
TABS,ioos:station:wmo:42043:1,1995-04-05T14:00:00Z,28.9818,-94.9186,2.0,245.9712661,81.23993107,-99999.0,'11111222,11111222,99999999' 
TABS,ioos:station:wmo:42043:1,1995-04-05T14:30:00Z,28.9818,-94.9186,2.0,245.4309506,68.80979945,-99999.0,'11111222,11111222,99999999' 
TABS,ioos:station:wmo:42043:1,1995-04-05T15:00:00Z,28.9818,-94.9186,2.0,242.3726576,64.9107857,-99999.0,'11111222,11111222,99999999' 
TABS,ioos:station:wmo:42043:1,1995-04-05T15:30:00Z,28.9818,-94.9186,2.0,241.8775466,63.85884747,-99999.0,'11111222,11111222,99999999' 
TABS,ioos:station:wmo:42043:1,1995-04-05T16:00:00Z,28.9818,-94.9186,2.0,238.1601174,66.64870591,-99999.0,'11111222,11111222,99999999' 
TABS,ioos:station:wmo:42043:1,1995-04-05T16:30:00Z,28.9818,-94.9186,2.0,231.3803119,66.36293318,-99999.0,'11111222,11111222,99999999' 
TABS,ioos:station:wmo:42043:1,1995-04-05T17:00:00Z,28.9818,-94.9186,2.0,232.3057821,57.9939971,-99999.0,'11111222,11111222,99999999' 
TABS,ioos:station:wmo:42043:1,1995-04-05T17:30:00Z,28.9818,-94.9186,2.0,224.4753337,46.35986195,-99999.0,'11111222,11111222,99999999' 
TABS,ioos:station:wmo:42043:1,1995-04-05T18:00:00Z,28.9818,-94.9186,2.0,224.9996843,39.61212188,-99999.0,'11111222,11111222,99999999' 
TABS,ioos:station:wmo:42043:1,1995-04-05T18:30:00Z,28.9818,-94.9186,2.0,245.106729,59.46448099,-99999.0,'11111222,11111222,99999999' 
TABS,ioos:station:wmo:42043:1,1995-04-05T19:00:00Z,28.9818,-94.9186,2.0,233.7798162,57.99773271,-99999.0,'11111222,11111222,99999999' 
TABS,ioos:station:wmo:42043:1,1995-04-05T19:30:00Z,28.9818,-94.9186,2.0,230.1151815,56.70246644,-99999.0,'11111222,11111222,99999999' 
TABS,ioos:station:wmo:42043:1,1995-04-05T20:00:00Z,28.9818,-94.9186,2.0,228.4243021,45.81040166,-99999.0,'11111222,11111222,99999999' 
TABS,ioos:station:wmo:42043:1,1995-04-05T20:30:00Z,28.9818,-94.9186,2.0,227.254016,53.56944278,-99999.0,'11111222,11111222,99999999' 
TABS,ioos:station:wmo:42043:1,1995-04-05T21:00:00Z,28.9818,-94.9186,2.0,219.8997052,49.71550764,-99999.0,'11111222,11111222,99999999' 
TABS,ioos:station:wmo:42043:1,1995-04-05T21:30:00Z,28.9818,-94.9186,2.0,219.6334359,49.5236075,-99999.0,'11111222,11111222,99999999' 
TABS,ioos:station:wmo:42043:1,1995-04-05T22:00:00Z,28.9818,-94.9186,2.0,217.8694025,47.56724188,-99999.0,'11111222,11111222,99999999' 
TABS,ioos:station:wmo:42043:1,1995-04-05T22:30:00Z,28.9818,-94.9186,2.0,229.2856693,47.96992495,-99999.0,'11111222,11111222,99999999' 
TABS,ioos:station:wmo:42043:1,1995-04-05T23:00:00Z,28.9818,-94.9186,2.0,224.8188655,67.21790535,-99999.0,'11111222,11111222,99999999' 
TABS,ioos:station:wmo:42043:1,1995-04-05T23:30:00Z,28.9818,-94.9186,2.0,219.3926328,79.82538255,-99999.0,'11111222,11111222,99999999' 
TABS,ioos:station:wmo:42043:1,1995-04-06T00:00:00Z,28.9818,-94.9186,2.0,218.1483956,82.98466846,-99999.0,'11111222,11111222,99999999' 
TABS,ioos:station:wmo:42043:1,1995-04-06T00:30:00Z,28.9818,-94.9186,2.0,213.2899187,83.06005659,-99999.0,'11111222,11111222,99999999' 
TABS,ioos:station:wmo:42043:1,1995-04-06T01:00:00Z,28.9818,-94.9186,2.0,211.7758859,79.22487551,-99999.0,'11111222,11111222,99999999' 
TABS,ioos:station:wmo:42043:1,1995-04-06T01:30:00Z,28.9818,-94.9186,2.0,214.5659765,75.63112124,-99999.0,'11111222,11111222,99999999' 
TABS,ioos:station:wmo:42043:1,1995-04-06T02:00:00Z,28.9818,-94.9186,2.0,213.1704349,54.46547622,-99999.0,'11111222,11111222,99999999' 
TABS,ioos:station:wmo:42043:1,1995-04-06T02:30:00Z,28.9818,-94.9186,2.0,221.2561653,42.02109232,-99999.0,'11111222,11111222,99999999' 
TABS,ioos:station:wmo:42043:1,1995-04-06T03:00:00Z,28.9818,-94.9186,2.0,223.5458913,41.52760648,-99999.0,'11111222,11111222,99999999' 
TABS,ioos:station:wmo:42043:1,1995-04-06T03:30:00Z,28.9818,-94.9186,2.0,223.4085478,75.88767621,-99999.0,'11111222,11111222,99999999' 
TABS,ioos:station:wmo:42043:1,1995-04-06T04:00:00Z,28.9818,-94.9186,2.0,223.4922521,80.10049313,-99999.0,'11111222,11111222,99999999' 
TABS,ioos:station:wmo:42043:1,1995-04-06T04:30:00Z,28.9818,-94.9186,2.0,220.5484548,73.34313397,-99999.0,'11111222,11111222,99999999' 
TABS,ioos:station:wmo:42043:1,1995-04-06T05:00:00Z,28.9818,-94.9186,2.0,230.0482704,59.86255674,-99999.0,'11111222,11111222,99999999' 
TABS,ioos:station:wmo:42043:1,1995-04-06T05:30:00Z,28.9818,-94.9186,2.0,238.0641608,51.2700156,-99999.0,'11111222,11111222,99999999' 
TABS,ioos:station:wmo:42043:1,1995-04-06T06:00:00Z,28.9818,-94.9186,2.0,240.0891203,50.19582652,-99999.0,'11111222,11111222,99999999' 
TABS,ioos:station:wmo:42043:1,1995-04-06T06:30:00Z,28.9818,-94.9186,2.0,239.0319952,50.39314438,-99999.0,'11111222,11111222,99999999' 
TABS,ioos:station:wmo:42043:1,1995-04-06T07:00:00Z,28.9818,-94.9186,2.0,239.6374446,48.35154599,-99999.0,'11111222,11111222,99999999' 
TABS,ioos:station:wmo:42043:1,1995-04-06T07:30:00Z,28.9818,-94.9186,2.0,239.0338006,46.91686797,-99999.0,'11111222,11111222,99999999' 
TABS,ioos:station:wmo:42043:1,1995-04-06T08:00:00Z,28.9818,-94.9186,2.0,232.8356676,46.36661083,-99999.0,'11111222,11111222,99999999' 
TABS,ioos:station:wmo:42043:1,1995-04-06T08:30:00Z,28.9818,-94.9186,2.0,229.0871215,47.31973901,-99999.0,'11111222,11111222,99999999' 
TABS,ioos:station:wmo:42043:1,1995-04-06T09:00:00Z,28.9818,-94.9186,2.0,235.1368684,44.31318653,-99999.0,'11111222,11111222,99999999' 
TABS,ioos:station:wmo:42043:1,1995-04-06T09:30:00Z,28.9818,-94.9186,2.0,234.0258019,45.65758316,-99999.0,'11111222,11111222,99999999' 
TABS,ioos:station:wmo:42043:1,1995-04-06T10:00:00Z,28.9818,-94.9186,2.0,235.1530491,40.67335737,-99999.0,'11111222,11111222,99999999' 
TABS,ioos:station:wmo:42043:1,1995-04-06T10:30:00Z,28.9818,-94.9186,2.0,232.9679081,41.06216385,-99999.0,'11111222,11111222,99999999' 
TABS,ioos:station:wmo:42043:1,1995-04-06T11:00:00Z,28.9818,-94.9186,2.0,232.9418624,36.59019677,-99999.0,'11111222,11111222,99999999' 
TABS,ioos:station:wmo:42043:1,1995-04-06T11:30:00Z,28.9818,-94.9186,2.0,228.4029588,42.64303226,-99999.0,'11111222,11111222,99999999' 
TABS,ioos:station:wmo:42043:1,1995-04-06T12:00:00Z,28.9818,-94.9186,2.0,235.1239928,83.91082171,-99999.0,'11111222,11111222,99999999' 
TABS,ioos:station:wmo:42043:1,1995-04-06T12:30:00Z,28.9818,-94.9186,2.0,240.9833881,84.17553683,-99999.0,'11111222,11111222,99999999' 
TABS,ioos:station:wmo:42043:1,1995-04-06T13:00:00Z,28.9818,-94.9186,2.0,241.1413099,76.55720084,-99999.0,'11111222,11111222,99999999' 
TABS,ioos:station:wmo:42043:1,1995-04-06T13:30:00Z,28.9818,-94.9186,2.0,246.1528669,75.91048017,-99999.0,'11111222,11111222,99999999' 
TABS,ioos:station:wmo:42043:1,1995-04-06T14:00:00Z,28.9818,-94.9186,2.0,249.3184437,79.31078174,-99999.0,'11111222,11111222,99999999' 
TABS,ioos:station:wmo:42043:1,1995-04-06T14:30:00Z,28.9818,-94.9186,2.0,249.8699692,70.14470187,-99999.0,'11111222,11111222,99999999' 
TABS,ioos:station:wmo:42043:1,1995-04-06T15:00:00Z,28.9818,-94.9186,2.0,252.0750888,85.19514071,-99999.0,'11111222,11111222,99999999' 
TABS,ioos:station:wmo:42043:1,1995-04-06T15:30:00Z,28.9818,-94.9186,2.0,254.488915,86.90503553,-99999.0,'11111222,11111222,99999999' 